Location: Girdwood
(60.9430°N, 149.1660°W)
Time: 13:04:17
(UTC-08:00)

Amateur Radio Satellites - All Passes

Search period start: 23 August 2016 12:34
Search period end: 24 August 2016 12:34
Location: Girdwood, 60.9430°N, 149.1660°W

Satellite Date Start Highest point End Downlink Frequencies (MHz)
Time Altitude Azimuth
Cosmos 2499 23 Aug 12:36:07 12:42:16 26° 76° (ENE) 12:48:07 435.465 / 435.565
ITAMSAT 1 23 Aug 12:37:48 12:40:20 14° 30° (NNE) 12:42:51 435.822/435.867
CUBEBUG 2 23 Aug 12:43:22 12:46:55 24° 308° (NW) 12:50:21 437.445
BUGSAT 1 23 Aug 12:44:47 12:49:03 82° 71° (ENE) 12:53:21 437.445
50 SAT 23 Aug 12:44:53 12:46:55 14° 87° (E) 12:48:57 437.505
DX 1 23 Aug 12:46:22 12:48:34 13° 83° (E) 12:50:47 434.975-435.025
AO-85 23 Aug 12:49:06 12:53:52 54° 5° (N) 12:58:15 145.980
BEESAT 3 23 Aug 12:50:06 12:53:23 26° 127° (SE) 12:56:43 437.485
UWE-3 23 Aug 12:51:14 12:54:50 26° 307° (NW) 12:58:20 435.000/436.395/437.385
Cubesat XI-IV 23 Aug 12:55:31 12:56:12 10° 343° (NNW) 12:56:53 437.490
Oscar 11 23 Aug 12:57:04 13:00:51 30° 303° (WNW) 13:04:37 145.826/435.025
AAUSAT CUBESAT 2 23 Aug 12:57:46 13:00:34 18° 312° (NW) 13:03:21 437.432
FUNcube-1 23 Aug 12:57:57 13:01:40 30° 304° (WNW) 13:05:20 145.935
HO-68 23 Aug 12:58:20 13:04:32 33° 321° (NW) 13:10:44 435.675
AISAT 23 Aug 13:00:06 13:03:42 23° 90° (E) 13:07:17 437.250
AIST 1 23 Aug 13:00:11 13:03:58 28° 301° (WNW) 13:07:49
QB50P2 23 Aug 13:01:04 13:05:06 39° 262° (W) 13:09:10 145.880/145.840
COMPASS 1 23 Aug 13:01:10 13:03:38 15° 315° (NW) 13:06:06 437.405
POLYITAN 1 23 Aug 13:03:38 13:07:40 39° 263° (W) 13:11:42 437.675
DUCHIFAT 1 23 Aug 13:05:25 13:09:28 41° 262° (W) 13:13:32 145.980
ANTELSAT 23 Aug 13:05:47 13:07:57 13° 279° (W) 13:10:06 437.575/2403.000
Cosmos 2504 23 Aug 13:05:58 13:12:00 22° 326° (NW) 13:17:46 435.465 / 435.565
NOAA 18 23 Aug 13:07:17 13:08:56 11° 345° (NNW) 13:10:34 137.9125
SPROUT 23 Aug 13:07:18 13:09:59 16° 84° (E) 13:12:39 437.525
HUMSAT D 23 Aug 13:08:57 13:13:01 62° 293° (WNW) 13:17:03 437.325/437.525
Oscar 19 23 Aug 13:09:48 13:14:43 46° 59° (ENE) 13:19:42 437.125/150
CUSAT 1 23 Aug 13:15:28 13:19:59 30° 268° (W) 13:25:33 437.405
ZACube-1 23 Aug 13:16:55 13:20:17 23° 308° (NW) 13:23:35 437.345
NANOSAT C BR1 23 Aug 13:17:07 13:20:59 32° 265° (W) 13:24:52 145.865
AO-7 23 Aug 13:20:51 13:28:00 33° 29° (NNE) 13:35:08 29.400- 29.500
PCSat 23 Aug 13:22:56 13:25:28 13° 105° (ESE) 13:28:01 145.827
DANDE 23 Aug 13:26:48 13:30:41 40° 261° (W) 13:35:44 436.750
ISS 23 Aug 13:30:55 13:32:20 12° 161° (SSE) 13:33:45 145.825
CINEMA 3 23 Aug 13:32:06 13:32:14 10° 332° (NNW) 13:32:22 145.822/145.860
UKube-1 23 Aug 13:35:16 13:38:53 25° 92° (E) 13:42:28 .
Gurwin Techsat 1B 23 Aug 13:41:51 13:46:52 44° 58° (ENE) 13:51:56 435.225
DELFI C3 23 Aug 13:41:53 13:45:03 23° 306° (NW) 13:48:14 145.870
RS-15 23 Aug 13:43:53 13:54:09 33° 253° (WSW) 14:04:24 29.354- 29.394
TISAT 1 23 Aug 13:45:31 13:46:07 10° 79° (E) 13:46:43 437.305
YUBILEINY 23 Aug 13:46:16 13:52:02 18° 356° (N) 13:57:47 435.215
VELOX 1 23 Aug 13:47:40 13:52:02 47° 100° (E) 13:56:22 145.980
JAS-2 23 Aug 13:55:05 14:00:00 40° 265° (W) 14:05:18 435.910
GONETS M04 23 Aug 13:57:11 14:05:52 70° 96° (E) 14:14:39
BEESAT 2 23 Aug 13:59:01 14:02:50 46° 137° (SE) 14:06:41 435.950
QB50P1 23 Aug 13:59:57 14:02:41 16° 275° (W) 14:05:27 145.935-145.965
CUBEBUG 1 23 Aug 14:02:23 14:06:52 70° 105° (ESE) 14:11:18 437.445
AUBIESAT-1 23 Aug 14:02:32 14:07:00 89° 112° (ESE) 14:11:10 437.475
M-CUBED/EXP-1 PRIME 23 Aug 14:03:57 14:08:31 80° 298° (WNW) 14:12:45 437.505
ESTCUBE 1 23 Aug 14:08:04 14:12:37 83° 292° (WNW) 14:17:10 437.505/2401.250
POPSAT HIP 1 23 Aug 14:10:02 14:12:23 14° 277° (W) 14:14:44 437.405
ITAMSAT 1 23 Aug 14:13:54 14:18:33 34° 53° (NE) 14:23:12 435.822/435.867
50 SAT 23 Aug 14:17:27 14:21:06 85° 105° (ESE) 14:24:45 437.505
DX 1 23 Aug 14:21:17 14:25:41 62° 104° (ESE) 14:30:03 434.975-435.025
BUGSAT 1 23 Aug 14:21:44 14:24:59 21° 271° (W) 14:28:14 437.445
Cosmos 2499 23 Aug 14:26:22 14:34:25 77° 100° (E) 14:41:53 435.465 / 435.565
BEESAT 3 23 Aug 14:26:44 14:30:42 88° 157° (SSE) 14:34:42 437.485
AO-85 23 Aug 14:29:58 14:34:42 88° 29° (NNE) 14:39:00 145.980
AISAT 23 Aug 14:36:11 14:40:42 78° 291° (WNW) 14:45:10 437.250
SPROUT 23 Aug 14:42:21 14:46:41 77° 105° (ESE) 14:51:00 437.525
HUMSAT D 23 Aug 14:45:29 14:47:59 16° 314° (NW) 14:50:28 437.325/437.525
HO-68 23 Aug 14:45:42 14:50:27 19° 346° (NNW) 14:55:13 435.675
NOAA 18 23 Aug 14:46:24 14:47:27 11° 10° (N) 14:48:31 137.9125
Oscar 19 23 Aug 14:49:07 14:54:07 48° 261° (W) 14:59:10 437.125/150
HORYU 2 23 Aug 14:50:46 14:51:37 10° 32° (NNE) 14:52:28 437.375
BRITE-PL 23 Aug 14:56:29 14:56:31 10° 20° (NNE) 14:56:32 437.365/2234.400
PCSat 23 Aug 15:02:32 15:07:42 47° 127° (SE) 15:12:54 145.827
NOAA 15 23 Aug 15:02:36 15:03:34 10° 18° (NNE) 15:04:31 137.62
Cosmos 2504 23 Aug 15:04:56 15:09:03 15° 358° (N) 15:13:02 435.465 / 435.565
ISS 23 Aug 15:05:42 15:07:52 17° 181° (S) 15:10:03 145.825
UKube-1 23 Aug 15:11:00 15:15:22 69° 293° (WNW) 15:19:41 .
AO-7 23 Aug 15:11:26 15:19:40 66° 54° (NE) 15:27:55 29.400- 29.500
ITUPSAT 1 23 Aug 15:13:23 15:16:24 16° 84° (E) 15:19:22 437.325
TISAT 1 23 Aug 15:18:41 15:22:50 49° 101° (E) 15:26:56 437.305
Gurwin Techsat 1B 23 Aug 15:21:40 15:26:52 51° 260° (W) 15:32:05 435.225
VELOX 1 23 Aug 15:24:19 15:28:29 39° 301° (WNW) 15:32:39 145.980
AIST 2 23 Aug 15:30:56 15:34:29 29° 128° (SE) 15:38:06 435.215
BEESAT 2 23 Aug 15:36:39 15:40:38 65° 338° (NNW) 15:44:39 435.950
AUBIESAT-1 23 Aug 15:37:19 15:41:01 26° 318° (NW) 15:44:32 437.475
M-CUBED/EXP-1 PRIME 23 Aug 15:38:50 15:42:30 24° 320° (NW) 15:46:00 437.505
CUBEBUG 1 23 Aug 15:39:04 15:42:53 28° 306° (NW) 15:46:40 437.445
ESTCUBE 1 23 Aug 15:45:27 15:48:55 22° 311° (NW) 15:52:24 437.505/2401.250
YUBILEINY 23 Aug 15:46:05 15:52:58 24° 30° (NNE) 15:59:48 435.215
SWISSCUBE 23 Aug 15:48:29 15:52:41 30° 93° (E) 15:56:52 437.505
50 SAT 23 Aug 15:51:42 15:54:18 19° 308° (NW) 15:56:54 437.505
ITAMSAT 1 23 Aug 15:52:36 15:57:47 69° 254° (WSW) 16:03:00 435.822/435.867
GONETS M04 23 Aug 15:54:54 16:03:19 48° 303° (WNW) 16:11:51
DX 1 23 Aug 15:57:49 16:01:41 30° 305° (NW) 16:05:32 434.975-435.025
BEESAT 3 23 Aug 16:04:48 16:08:40 49° 351° (N) 16:12:33 437.485
BEESAT 23 Aug 16:06:06 16:10:31 36° 96° (E) 16:14:54 436.000
Cubesat XI-IV 23 Aug 16:09:13 16:12:14 15° 32° (NNE) 16:15:15 437.490
AO-85 23 Aug 16:10:47 16:14:46 30° 233° (SW) 16:18:27 145.980
AISAT 23 Aug 16:13:16 16:16:37 21° 312° (NW) 16:19:58 437.250
SPROUT 23 Aug 16:18:45 16:22:18 25° 307° (NW) 16:25:49 437.525
Cosmos 2499 23 Aug 16:20:51 16:28:14 40° 304° (NW) 16:35:10 435.465 / 435.565
CUTE-I 23 Aug 16:22:05 16:25:26 17° 35° (NE) 16:28:47 437.470
NOAA 18 23 Aug 16:22:35 16:26:16 19° 34° (NE) 16:29:56 137.9125
HORYU 2 23 Aug 16:23:07 16:26:59 29° 54° (NE) 16:30:51 437.375
BRITE-PL 23 Aug 16:29:25 16:33:14 22° 44° (NE) 16:37:16 437.365/2234.400
GOMX 1 23 Aug 16:30:21 16:33:34 17° 37° (NE) 16:36:53 467.674
O/OREOS (USA 219) 23 Aug 16:31:11 16:35:24 40° 115° (ESE) 16:39:39 437.305
HO-68 23 Aug 16:31:13 16:35:55 19° 13° (NNE) 16:40:38 435.675
Oscar 19 23 Aug 16:32:54 16:34:47 12° 283° (WNW) 16:36:42 437.125/150
NOAA 15 23 Aug 16:37:44 16:41:40 22° 42° (NE) 16:45:39 137.62
ISS 23 Aug 16:42:06 16:43:24 12° 200° (SSW) 16:44:42 145.825
PCSat 23 Aug 16:45:35 16:51:01 69° 330° (NNW) 16:56:29 145.827
UKube-1 23 Aug 16:47:45 16:50:48 19° 314° (NW) 16:53:49 .
ITUPSAT 1 23 Aug 16:50:20 16:55:08 70° 105° (ESE) 16:59:53 437.325
TISAT 1 23 Aug 16:54:33 16:58:25 34° 302° (WNW) 17:02:14 437.305
DOVE 4 23 Aug 17:00:40 17:03:42 16° 36° (NE) 17:06:46 437.250
Cosmos 2504 23 Aug 17:00:44 17:06:11 20° 30° (NNE) 17:11:25 435.465 / 435.565
MOZHAYETS 4 23 Aug 17:00:45 17:04:32 25° 90° (E) 17:08:18
VELOX 1 23 Aug 17:01:56 17:03:58 13° 323° (NW) 17:05:58 145.980
AO-7 23 Aug 17:04:43 17:12:50 52° 258° (WSW) 17:20:59 29.400- 29.500
Gurwin Techsat 1B 23 Aug 17:05:41 17:08:07 13° 282° (WNW) 17:10:34 435.225
AIST 2 23 Aug 17:08:29 17:12:39 89° 314° (NW) 17:16:51 435.215
AUBIESAT-1 23 Aug 17:12:31 17:14:15 12° 340° (NNW) 17:15:56 437.475
M-CUBED/EXP-1 PRIME 23 Aug 17:14:02 17:15:43 12° 342° (NNW) 17:17:23 437.505
BEESAT 2 23 Aug 17:15:01 17:18:55 47° 2° (N) 17:22:50 435.950
SWISSCUBE 23 Aug 17:26:08 17:30:52 65° 294° (WNW) 17:35:35 437.505
KKS-1 23 Aug 17:28:28 17:32:29 31° 94° (E) 17:36:28 437.445
LilacSat-2 23 Aug 17:34:06 17:37:06 22° 54° (NE) 17:40:05 437.200
ITAMSAT 1 23 Aug 17:34:51 17:38:15 17° 276° (W) 17:41:40 435.822/435.867
DX 1 23 Aug 17:35:45 17:36:43 11° 327° (NNW) 17:37:40 434.975-435.025
Cosmos 2491 23 Aug 17:40:48 17:45:57 17° 62° (ENE) 17:51:08 435.465 / 435.565
BEESAT 3 23 Aug 17:42:55 17:46:50 55° 14° (NNE) 17:50:46 437.485
YUBILEINY 23 Aug 17:43:46 17:52:21 51° 59° (ENE) 18:00:50 435.215
BEESAT 23 Aug 17:43:53 17:48:32 54° 297° (WNW) 17:53:10 436.000
Cubesat XI-IV 23 Aug 17:46:12 17:51:08 39° 55° (NE) 17:56:04 437.490
GONETS M04 23 Aug 17:56:09 18:02:52 23° 333° (NNW) 18:09:39
HORYU 2 23 Aug 17:58:50 18:03:18 67° 255° (WSW) 18:07:46 437.375
CUTE-I 23 Aug 17:59:22 18:04:27 46° 58° (ENE) 18:09:31 437.470
NOAA 18 23 Aug 18:00:35 18:05:52 47° 57° (ENE) 18:11:09 137.9125
GOMX 1 23 Aug 18:05:36 18:10:30 44° 59° (ENE) 18:15:39 467.674
BRITE-PL 23 Aug 18:06:00 18:10:55 68° 67° (ENE) 18:16:16 437.365/2234.400
CUBESAT XI-V 23 Aug 18:08:24 18:11:50 20° 86° (E) 18:15:17 437.345
O/OREOS (USA 219) 23 Aug 18:10:18 18:14:45 54° 318° (NW) 18:19:16 437.305
CINEMA 3 23 Aug 18:14:26 18:17:38 17° 42° (NE) 18:20:48 145.822/145.860
NOAA 15 23 Aug 18:15:30 18:20:42 65° 65° (ENE) 18:25:58 137.62
HO-68 23 Aug 18:15:39 18:21:48 32° 38° (NE) 18:27:55 435.675
STARS 23 Aug 18:16:55 18:21:10 42° 99° (E) 18:25:22 437.465
Cosmos 2499 23 Aug 18:18:46 18:23:50 18° 333° (NNW) 18:28:43 435.465 / 435.565
ITUPSAT 1 23 Aug 18:28:32 18:32:42 31° 307° (NW) 18:36:52 437.325
SEEDS 23 Aug 18:29:48 18:31:14 12° 39° (NE) 18:32:39 437.485
PCSat 23 Aug 18:29:54 18:35:08 45° 355° (N) 18:40:22 145.827
TISAT 1 23 Aug 18:31:48 18:33:01 11° 324° (NW) 18:34:13 437.305
DOVE 4 23 Aug 18:35:21 18:40:15 42° 58° (ENE) 18:45:14 437.250
MOZHAYETS 4 23 Aug 18:37:37 18:42:11 73° 291° (WNW) 18:46:45
CANX-2 23 Aug 18:40:19 18:43:01 17° 47° (NE) 18:45:44 2200.000
CUTE 1.7 + AOD 2 23 Aug 18:47:18 18:50:02 17° 47° (NE) 18:52:47 437.475
AIST 2 23 Aug 18:47:24 18:51:28 50° 353° (N) 18:55:34 435.215
BEESAT 2 23 Aug 18:53:07 18:57:09 74° 25° (NNE) 19:01:11 435.950
Cosmos 2504 23 Aug 18:54:36 19:01:53 47° 59° (ENE) 19:08:49 435.465 / 435.565
AO-7 23 Aug 19:02:42 19:07:50 17° 284° (WNW) 19:12:58 29.400- 29.500
CUBEBUG 2 23 Aug 19:03:33 19:06:08 15° 42° (NE) 19:08:41 437.445
SWISSCUBE 23 Aug 19:04:35 19:07:58 20° 316° (NW) 19:11:21 437.505
KKS-1 23 Aug 19:04:55 19:09:21 57° 296° (WNW) 19:13:44 437.445
LilacSat-2 23 Aug 19:07:11 19:11:03 76° 253° (WSW) 19:14:55 437.200
UWE-3 23 Aug 19:11:24 19:13:29 13° 40° (NE) 19:15:33 435.000/436.395/437.385
AAUSAT CUBESAT 2 23 Aug 19:13:02 19:15:16 14° 44° (NE) 19:17:31 437.432
COMPASS 1 23 Aug 19:15:58 19:18:38 17° 47° (NE) 19:21:18 437.405
Oscar 11 23 Aug 19:17:17 19:18:21 11° 36° (NE) 19:19:25 145.826/435.025
FUNcube-1 23 Aug 19:18:36 19:19:37 11° 37° (NE) 19:20:38 145.935
BEESAT 3 23 Aug 19:20:42 19:24:39 65° 217° (SW) 19:28:36 437.485
BEESAT 23 Aug 19:22:26 19:25:29 17° 319° (NW) 19:28:33 436.000
Cubesat XI-IV 23 Aug 19:25:48 19:31:06 60° 257° (WSW) 19:36:25 437.490
Cosmos 2491 23 Aug 19:32:25 19:40:42 51° 88° (E) 19:49:04 435.465 / 435.565
ZACube-1 23 Aug 19:36:03 19:38:14 14° 42° (NE) 19:40:25 437.345
HORYU 2 23 Aug 19:38:15 19:40:44 15° 276° (W) 19:43:14 437.375
CUTE-I 23 Aug 19:39:21 19:44:33 50° 260° (W) 19:49:45 437.470
YUBILEINY 23 Aug 19:40:56 19:49:38 65° 266° (W) 19:58:14 435.215
AIST 1 23 Aug 19:41:06 19:43:38 15° 46° (NE) 19:46:08
NOAA 18 23 Aug 19:41:11 19:46:35 51° 259° (W) 19:52:01 137.9125
GOMX 1 23 Aug 19:43:32 19:48:34 52° 262° (W) 19:53:53 467.674
CUBESAT XI-V 23 Aug 19:45:12 19:49:56 86° 108° (ESE) 19:54:40 437.345
BRITE-PL 23 Aug 19:45:31 19:49:53 31° 270° (W) 19:54:35 437.365/2234.400
CINEMA 3 23 Aug 19:49:01 19:53:54 52° 64° (ENE) 19:58:42 145.822/145.860
O/OREOS (USA 219) 23 Aug 19:51:19 19:55:05 25° 342° (NNW) 19:58:53 437.305
STARS 23 Aug 19:53:23 19:57:35 42° 300° (WNW) 20:01:45 437.465
NOAA 15 23 Aug 19:56:09 20:00:54 33° 266° (W) 20:05:41 137.62
GONETS M04 23 Aug 19:58:04 20:03:53 19° 6° (N) 20:09:45
HO-68 23 Aug 20:01:31 20:08:42 74° 62° (ENE) 20:15:55 435.675
SEEDS 23 Aug 20:02:05 20:05:58 38° 61° (ENE) 20:09:52 437.485
ITUPSAT 1 23 Aug 20:07:42 20:09:18 12° 330° (NNW) 20:10:54 437.325
DOVE 4 23 Aug 20:12:44 20:17:52 55° 261° (W) 20:23:07 437.250
PCSat 23 Aug 20:14:01 20:19:23 54° 20° (NNE) 20:24:44 145.827
CANX-2 23 Aug 20:14:03 20:18:13 64° 69° (ENE) 20:22:25 2200.000
MOZHAYETS 4 23 Aug 20:15:26 20:18:45 20° 313° (NW) 20:22:04
Cosmos 2499 23 Aug 20:17:04 20:20:43 14° 5° (N) 20:24:19 435.465 / 435.565
AUBIESAT-1 23 Aug 20:17:38 20:19:56 14° 25° (NNE) 20:22:12 437.475
M-CUBED/EXP-1 PRIME 23 Aug 20:18:52 20:21:32 15° 27° (NNE) 20:24:11 437.505
CUTE 1.7 + AOD 2 23 Aug 20:21:04 20:25:14 66° 68° (ENE) 20:29:26 437.475
AIST 2 23 Aug 20:26:19 20:30:27 58° 16° (NNE) 20:34:36 435.215
BEESAT 2 23 Aug 20:31:06 20:34:50 37° 227° (SW) 20:38:34 435.950
CUBEBUG 2 23 Aug 20:37:24 20:41:54 48° 63° (ENE) 20:46:17 437.445
KKS-1 23 Aug 20:42:16 20:45:09 17° 317° (NW) 20:48:02 437.445
LilacSat-2 23 Aug 20:44:00 20:46:03 14° 275° (W) 20:48:06 437.200
UWE-3 23 Aug 20:44:43 20:49:00 41° 61° (ENE) 20:53:12 435.000/436.395/437.385
AAUSAT CUBESAT 2 23 Aug 20:45:59 20:49:59 53° 66° (ENE) 20:54:03 437.432
Cosmos 2504 23 Aug 20:48:17 20:55:39 61° 266° (W) 21:02:42 435.465 / 435.565
COMPASS 1 23 Aug 20:49:28 20:53:33 66° 69° (ENE) 20:57:42 437.405
Oscar 11 23 Aug 20:49:32 20:53:24 33° 58° (ENE) 20:57:18 145.826/435.025
FUNcube-1 23 Aug 20:50:49 20:54:47 33° 58° (ENE) 20:58:41 145.935
STRAND 1 23 Aug 20:54:52 20:59:36 37° 96° (E) 21:04:20 437.568
BEESAT 3 23 Aug 20:59:00 21:01:44 18° 239° (WSW) 21:04:27 437.485
HUMSAT D 23 Aug 21:00:42 21:03:18 16° 47° (NE) 21:05:54 437.325/437.525
Cubesat XI-IV 23 Aug 21:09:10 21:12:19 16° 279° (W) 21:15:28 437.490
ZACube-1 23 Aug 21:09:25 21:13:40 45° 63° (ENE) 21:17:50 437.345
AIST 1 23 Aug 21:17:55 21:22:17 54° 69° (ENE) 21:26:36
CUBESAT XI-V 23 Aug 21:23:05 21:26:54 25° 309° (NW) 21:30:43 437.345
CUTE-I 23 Aug 21:23:38 21:25:56 13° 282° (WNW) 21:28:15 437.470
GOMX 1 23 Aug 21:25:26 21:27:59 13° 285° (WNW) 21:30:35 467.674
NOAA 18 23 Aug 21:25:57 21:28:36 13° 281° (W) 21:31:16 137.9125
PRISM 23 Aug 21:26:12 21:28:03 13° 83° (E) 21:29:54 437.425
CINEMA 3 23 Aug 21:26:28 21:31:12 40° 265° (W) 21:35:53 145.822/145.860
DELFI C3 23 Aug 21:27:41 21:31:13 32° 59° (ENE) 21:34:47 145.870
Cosmos 2491 23 Aug 21:28:51 21:37:30 63° 294° (WNW) 21:46:16 435.465 / 435.565
STARS 23 Aug 21:30:49 21:33:00 14° 322° (NW) 21:35:10 437.465
O/OREOS (USA 219) 23 Aug 21:32:23 21:35:55 21° 7° (N) 21:39:28 437.305
SEEDS 23 Aug 21:37:44 21:41:42 42° 262° (W) 21:45:42 437.485
YUBILEINY 23 Aug 21:38:28 21:44:49 23° 292° (WNW) 21:51:09 435.215
VELOX 1 23 Aug 21:46:19 21:47:35 11° 33° (NNE) 21:48:52 145.980
AUBIESAT-1 23 Aug 21:49:13 21:53:18 31° 46° (NE) 21:57:21 437.475
HO-68 23 Aug 21:50:21 21:57:02 39° 265° (W) 22:03:44 435.675
M-CUBED/EXP-1 PRIME 23 Aug 21:50:45 21:55:02 35° 48° (NE) 21:59:18 437.505
CANX-2 23 Aug 21:50:57 21:54:28 25° 269° (W) 21:58:00 2200.000
DOVE 4 23 Aug 21:53:56 21:56:45 14° 283° (WNW) 21:59:36 437.250
GONETS M04 23 Aug 21:57:05 22:04:33 29° 38° (NE) 22:12:01
PCSat 23 Aug 21:57:39 22:03:05 72° 224° (SW) 22:08:30 145.827
CUTE 1.7 + AOD 2 23 Aug 21:58:02 22:01:29 24° 269° (W) 22:04:59 437.475
CUBEBUG 1 23 Aug 21:58:52 22:00:59 13° 39° (NE) 22:03:05 437.445
AIST 2 23 Aug 22:04:55 22:09:04 61° 219° (SW) 22:13:12 435.215
ESTCUBE 1 23 Aug 22:06:01 22:09:01 18° 45° (NE) 22:12:02 437.505/2401.250
Cosmos 2499 23 Aug 22:11:41 22:17:18 23° 37° (NE) 22:22:44 435.465 / 435.565
CUBEBUG 2 23 Aug 22:14:16 22:18:39 39° 264° (W) 22:22:58 437.445
DX 1 23 Aug 22:17:35 22:19:36 13° 38° (NE) 22:21:37 434.975-435.025
UWE-3 23 Aug 22:21:07 22:25:31 44° 262° (W) 22:29:49 435.000/436.395/437.385
AAUSAT CUBESAT 2 23 Aug 22:22:07 22:25:45 29° 267° (W) 22:29:23 437.432
Oscar 11 23 Aug 22:25:13 22:29:27 52° 259° (W) 22:33:41 145.826/435.025
COMPASS 1 23 Aug 22:26:09 22:29:32 24° 269° (W) 22:32:56 437.405
FUNcube-1 23 Aug 22:26:33 22:30:55 55° 258° (WSW) 22:35:13 145.935
AISAT 23 Aug 22:32:19 22:35:26 19° 45° (NE) 22:38:34 437.250
STRAND 1 23 Aug 22:34:03 22:39:04 57° 297° (WNW) 22:44:03 437.568
HUMSAT D 23 Aug 22:34:10 22:38:17 64° 68° (ENE) 22:42:23 437.325/437.525
SPROUT 23 Aug 22:37:01 22:39:00 13° 40° (NE) 22:40:57 437.525
Cosmos 2504 23 Aug 22:42:39 22:47:30 19° 291° (WNW) 22:52:14 435.465 / 435.565
ZACube-1 23 Aug 22:45:53 22:50:05 38° 264° (W) 22:54:11 437.345
AIST 1 23 Aug 22:55:50 22:59:42 30° 271° (W) 23:03:34
PRISM 23 Aug 23:00:05 23:04:14 61° 103° (ESE) 23:08:23 437.425
DELFI C3 23 Aug 23:02:11 23:06:00 47° 260° (W) 23:09:51 145.870
UKube-1 23 Aug 23:04:54 23:08:01 19° 46° (NE) 23:11:07 .
ANTELSAT 23 Aug 23:07:52 23:10:40 16° 84° (E) 23:13:24 437.575/2403.000
O/OREOS (USA 219) 23 Aug 23:12:19 23:16:33 35° 32° (NNE) 23:20:48 437.305
VELOX 1 23 Aug 23:18:57 23:22:54 32° 56° (NE) 23:26:53 145.980
AUBIESAT-1 23 Aug 23:22:48 23:27:28 76° 246° (WSW) 23:32:06 437.475
M-CUBED/EXP-1 PRIME 23 Aug 23:24:39 23:29:21 66° 248° (WSW) 23:34:03 437.505
Cosmos 2491 23 Aug 23:29:10 23:36:25 28° 323° (NW) 23:43:45 435.465 / 435.565
50 SAT 23 Aug 23:31:09 23:34:20 30° 59° (ENE) 23:37:32 437.505
CUBEBUG 1 23 Aug 23:32:08 23:36:18 41° 60° (ENE) 23:40:29 437.445
TIGRISAT 23 Aug 23:39:37 23:43:19 26° 91° (E) 23:46:57 435.000
ESTCUBE 1 23 Aug 23:40:41 23:45:07 62° 66° (ENE) 23:49:36 437.505/2401.250
PCSat 23 Aug 23:41:35 23:45:46 23° 247° (WSW) 23:49:56 145.827
AIST 2 23 Aug 23:44:06 23:46:54 17° 240° (WSW) 23:49:40 435.215
HO-68 23 Aug 23:44:57 23:47:03 11° 290° (WNW) 23:49:09 435.675
DX 1 23 Aug 23:50:43 23:54:49 40° 59° (ENE) 23:58:57 434.975-435.025
GONETS M04 23 Aug 23:54:31 00:03:22 65° 67° (ENE) 00:12:12
SWISSCUBE 23 Aug 23:54:51 23:55:41 10° 28° (NNE) 23:56:32 437.505
Cosmos 2499 24 Aug 00:05:06 00:12:17 58° 65° (ENE) 00:19:13 435.465 / 435.565
Oscar 11 24 Aug 00:05:22 00:06:37 11° 281° (W) 00:07:52 145.826/435.025
FUNcube-1 24 Aug 00:06:29 00:08:08 12° 280° (W) 00:09:47 145.935
UNISAT 6 24 Aug 00:06:36 00:10:48 42° 98° (E) 00:14:54 437.425
AISAT 24 Aug 00:06:49 00:11:15 67° 67° (ENE) 00:15:44 437.250
POPSAT HIP 1 24 Aug 00:07:42 00:09:14 12° 81° (E) 00:10:45 437.405
SPROUT 24 Aug 00:09:55 00:14:00 42° 61° (ENE) 00:18:06 437.525
HUMSAT D 24 Aug 00:10:50 00:14:17 25° 268° (W) 00:17:45 437.325/437.525
BEESAT 24 Aug 00:11:29 00:13:07 12° 31° (NNE) 00:14:46 436.000
STRAND 1 24 Aug 00:13:53 00:17:25 19° 320° (NW) 00:20:56 437.568
PRISM 24 Aug 00:35:44 00:39:20 29° 305° (NW) 00:42:57 437.425
QB50P2 24 Aug 00:35:52 00:39:02 20° 88° (E) 00:42:10 145.880/145.840
POLYITAN 1 24 Aug 00:38:25 00:41:35 20° 88° (E) 00:44:43 437.675
UKube-1 24 Aug 00:39:08 00:43:28 73° 68° (ENE) 00:47:50 .
DUCHIFAT 1 24 Aug 00:39:33 00:42:33 18° 87° (E) 00:45:32 145.980
ANTELSAT 24 Aug 00:43:45 00:48:11 78° 107° (ESE) 00:52:29 437.575/2403.000
TISAT 1 24 Aug 00:45:00 00:48:43 30° 56° (NE) 00:52:26 437.305
CUSAT 1 24 Aug 00:49:06 00:51:38 22° 87° (E) 00:54:38 437.405
NANOSAT C BR1 24 Aug 00:50:58 00:54:25 23° 90° (E) 00:57:50 145.865
JAS-2 24 Aug 00:51:09 00:56:02 23° 85° (E) 01:01:19 435.910
O/OREOS (USA 219) 24 Aug 00:51:47 00:56:23 77° 235° (SW) 01:00:59 437.305
ITUPSAT 1 24 Aug 00:53:59 00:57:06 18° 41° (NE) 01:00:12 437.325
VELOX 1 24 Aug 00:54:48 00:59:12 60° 257° (WSW) 01:03:40 145.980
AUBIESAT-1 24 Aug 00:59:23 01:02:37 18° 267° (W) 01:05:50 437.475
M-CUBED/EXP-1 PRIME 24 Aug 01:01:45 01:04:41 16° 269° (W) 01:07:37 437.505
50 SAT 24 Aug 01:04:25 01:07:51 43° 260° (W) 01:11:20 437.505
CUBEBUG 1 24 Aug 01:08:25 01:12:37 43° 261° (W) 01:16:54 437.445
TIGRISAT 24 Aug 01:16:04 01:20:26 65° 293° (WNW) 01:24:41 435.000
ESTCUBE 1 24 Aug 01:18:24 01:22:18 29° 267° (W) 01:26:14 437.505/2401.250
DX 1 24 Aug 01:26:50 01:31:02 44° 261° (W) 01:35:17 434.975-435.025
SWISSCUBE 24 Aug 01:28:12 01:32:08 27° 50° (NE) 01:36:06 437.505
Cosmos 2491 24 Aug 01:31:25 01:37:08 18° 355° (N) 01:42:53 435.465 / 435.565
QB50P1 24 Aug 01:32:11 01:36:20 48° 100° (E) 01:40:26 145.935-145.965
POPSAT HIP 1 24 Aug 01:41:46 01:46:00 56° 102° (ESE) 01:50:10 437.405
UNISAT 6 24 Aug 01:43:26 01:47:35 41° 300° (WNW) 01:51:38 437.425
AISAT 24 Aug 01:44:20 01:48:08 27° 268° (W) 01:51:58 437.250
BEESAT 24 Aug 01:45:30 01:49:40 31° 53° (NE) 01:53:51 436.000
SPROUT 24 Aug 01:45:55 01:50:01 41° 262° (W) 01:54:08 437.525
GONETS M04 24 Aug 01:51:43 02:00:06 50° 273° (W) 02:08:28
BUGSAT 1 24 Aug 01:51:57 01:55:52 35° 96° (E) 01:59:41 437.445
Cosmos 2499 24 Aug 01:58:32 02:05:22 47° 271° (W) 02:12:00 435.465 / 435.565
RS-15 24 Aug 02:09:55 02:18:33 25° 99° (E) 02:27:26 29.354- 29.394
QB50P2 24 Aug 02:11:07 02:15:25 84° 288° (WNW) 02:19:40 145.880/145.840
POLYITAN 1 24 Aug 02:13:41 02:17:58 83° 287° (WNW) 02:22:12 437.675
DUCHIFAT 1 24 Aug 02:14:36 02:18:52 89° 292° (WNW) 02:23:06 145.980
STARS 24 Aug 02:15:30 02:16:22 10° 32° (NNE) 02:17:14 437.465
UKube-1 24 Aug 02:16:29 02:20:00 23° 269° (W) 02:23:31 .
TISAT 1 24 Aug 02:19:57 02:24:10 61° 256° (WSW) 02:28:25 437.305
ANTELSAT 24 Aug 02:20:56 02:24:32 25° 308° (NW) 02:28:04 437.575/2403.000
NANOSAT C BR1 24 Aug 02:26:22 02:30:37 71° 291° (WNW) 02:34:48 145.865
ITUPSAT 1 24 Aug 02:29:28 02:34:07 55° 63° (ENE) 02:38:48 437.325
CUSAT 1 24 Aug 02:30:13 02:33:16 45° 297° (WNW) 02:37:11 437.405
O/OREOS (USA 219) 24 Aug 02:31:59 02:35:09 19° 256° (WSW) 02:38:20 437.305
VELOX 1 24 Aug 02:34:31 02:36:38 13° 278° (W) 02:38:46 145.980
SO-50 24 Aug 02:35:13 02:39:28 31° 128° (SE) 02:43:39 436.795
JAS-2 24 Aug 02:35:51 02:42:03 74° 106° (ESE) 02:49:05 435.910
MOZHAYETS 4 24 Aug 02:36:54 02:40:12 20° 47° (NE) 02:43:29
DANDE 24 Aug 02:47:56 02:50:34 77° 288° (WNW) 02:53:36 436.750
Oscar 19 24 Aug 02:49:56 02:54:35 31° 93° (E) 02:59:13 437.125/150
TIGRISAT 24 Aug 02:53:31 02:56:26 18° 315° (NW) 02:59:20 435.000
KKS-1 24 Aug 03:00:49 03:04:25 24° 50° (NE) 03:08:02 437.445
SWISSCUBE 24 Aug 03:04:46 03:09:32 83° 250° (WSW) 03:14:21 437.505
QB50P1 24 Aug 03:08:10 03:12:04 35° 301° (WNW) 03:15:56 145.935-145.965
POPSAT HIP 1 24 Aug 03:17:51 03:21:38 31° 303° (WNW) 03:25:23 437.405
UNISAT 6 24 Aug 03:21:21 03:23:18 13° 322° (NW) 03:25:16 437.425
BEESAT 24 Aug 03:22:27 03:27:13 69° 255° (WSW) 03:32:00 436.000
Gurwin Techsat 1B 24 Aug 03:27:09 03:31:56 32° 93° (E) 03:36:42 435.225
BUGSAT 1 24 Aug 03:27:19 03:31:23 46° 297° (WNW) 03:35:23 437.445
Cosmos 2491 24 Aug 03:31:21 03:38:08 24° 29° (NNE) 03:44:55 435.465 / 435.565
CUBESAT XI-V 24 Aug 03:46:14 03:49:10 17° 43° (NE) 03:52:05 437.345
QB50P2 24 Aug 03:47:33 03:50:44 21° 311° (NW) 03:53:54 145.880/145.840
STARS 24 Aug 03:47:40 03:51:32 30° 54° (NE) 03:55:24 437.465
GONETS M04 24 Aug 03:49:40 03:54:46 17° 299° (WNW) 03:59:52
POLYITAN 1 24 Aug 03:50:06 03:53:16 21° 311° (NW) 03:56:25 437.675
DUCHIFAT 1 24 Aug 03:50:52 03:54:07 22° 310° (NW) 03:57:20 145.980
Cosmos 2499 24 Aug 03:53:18 03:56:36 14° 297° (WNW) 03:59:52 435.465 / 435.565
ITAMSAT 1 24 Aug 03:55:21 03:59:17 21° 87° (E) 04:03:12 435.822/435.867
TISAT 1 24 Aug 03:58:47 04:00:44 13° 278° (W) 04:02:40 437.305
NANOSAT C BR1 24 Aug 04:02:49 04:05:44 18° 313° (NW) 04:08:38 145.865
ITUPSAT 1 24 Aug 04:07:50 04:12:13 35° 264° (W) 04:16:37 437.325
MOZHAYETS 4 24 Aug 04:12:11 04:16:45 71° 68° (ENE) 04:21:19
SO-50 24 Aug 04:14:44 04:19:35 86° 148° (SSE) 04:24:22 436.795
CUSAT 1 24 Aug 04:15:19 04:16:42 12° 326° (NW) 04:18:13 437.405
RS-15 24 Aug 04:17:03 04:28:28 60° 127° (SE) 04:40:24 29.354- 29.394
JAS-2 24 Aug 04:21:20 04:26:55 39° 307° (NW) 04:33:07 435.910
Oscar 19 24 Aug 04:29:09 04:34:21 68° 295° (WNW) 04:39:32 437.125/150
DANDE 24 Aug 04:33:31 04:34:12 11° 317° (NW) 04:34:55 436.750
KKS-1 24 Aug 04:36:03 04:40:34 88° 252° (WSW) 04:45:06 437.445
SWISSCUBE 24 Aug 04:44:40 04:48:05 19° 273° (W) 04:51:32 437.505
QB50P1 24 Aug 04:45:30 04:46:48 11° 323° (NW) 04:48:07 145.935-145.965
AO-7 24 Aug 04:54:02 05:01:28 34° 92° (E) 05:08:49 29.400- 29.500
POPSAT HIP 1 24 Aug 04:55:43 04:56:18 10° 325° (NW) 04:56:53 437.405
BEESAT 24 Aug 05:02:58 05:05:55 16° 276° (W) 05:08:51 436.000
BUGSAT 1 24 Aug 05:03:47 05:05:54 14° 319° (NW) 05:08:00 437.445
STRAND 1 24 Aug 05:06:34 05:09:09 14° 32° (NNE) 05:11:44 437.568
Gurwin Techsat 1B 24 Aug 05:07:01 05:12:20 68° 295° (WNW) 05:17:37 435.225
YUBILEINY 24 Aug 05:09:34 05:12:24 12° 53° (NE) 05:15:14 435.215
CUBESAT XI-V 24 Aug 05:21:13 05:25:44 55° 65° (ENE) 05:30:17 437.345
STARS 24 Aug 05:23:14 05:27:40 66° 255° (WSW) 05:32:07 437.465
Cosmos 2491 24 Aug 05:29:05 05:37:37 49° 58° (ENE) 05:46:08 435.465 / 435.565
ITAMSAT 1 24 Aug 05:34:19 05:39:33 84° 110° (ESE) 05:44:45 435.822/435.867
HORYU 2 24 Aug 05:40:46 05:42:50 13° 82° (E) 05:44:54 437.375
MOZHAYETS 4 24 Aug 05:50:35 05:54:23 25° 270° (W) 05:58:12
SO-50 24 Aug 05:55:39 06:00:24 57° 353° (N) 06:05:03 436.795
BRITE-PL 24 Aug 06:00:52 06:04:06 15° 78° (ENE) 06:07:19 437.365/2234.400
JAS-2 24 Aug 06:07:01 06:10:42 17° 330° (NNW) 06:14:36 435.910
Oscar 19 24 Aug 06:09:01 06:12:58 22° 317° (NW) 06:16:55 437.125/150
KKS-1 24 Aug 06:14:33 06:17:48 19° 273° (W) 06:21:04 437.445
NOAA 15 24 Aug 06:21:55 06:23:45 12° 77° (ENE) 06:25:34 137.62
RS-15 24 Aug 06:28:42 06:40:45 83° 337° (NNW) 06:53:14 29.354- 29.394
STRAND 1 24 Aug 06:42:30 06:47:09 36° 55° (NE) 06:51:48 437.568
AO-7 24 Aug 06:46:55 06:55:20 89° 116° (ESE) 07:03:40 29.400- 29.500
Gurwin Techsat 1B 24 Aug 06:47:31 06:51:34 23° 317° (NW) 06:55:36 435.225
PRISM 24 Aug 06:52:42 06:53:47 11° 36° (NE) 06:54:51 437.425
YUBILEINY 24 Aug 06:58:41 07:06:27 36° 80° (E) 07:14:12 435.215
CUBESAT XI-V 24 Aug 06:59:12 07:03:23 33° 266° (W) 07:07:37 437.345
STARS 24 Aug 07:02:30 07:04:55 14° 277° (W) 07:07:21 437.465
ITAMSAT 1 24 Aug 07:14:13 07:18:38 29° 311° (NW) 07:23:02 435.822/435.867
HORYU 2 24 Aug 07:15:57 07:20:22 60° 104° (ESE) 07:24:44 437.375
Cosmos 2491 24 Aug 07:26:17 07:35:01 68° 265° (W) 07:43:44 435.465 / 435.565
Cubesat XI-IV 24 Aug 07:32:35 07:37:07 27° 90° (E) 07:41:36 437.490
GOMX 1 24 Aug 07:34:42 07:39:38 32° 90° (E) 07:44:29 467.674
SO-50 24 Aug 07:36:37 07:41:23 65° 17° (NNE) 07:46:00 436.795
BRITE-PL 24 Aug 07:38:15 07:43:46 55° 99° (E) 07:49:23 437.365/2234.400
CUTE-I 24 Aug 07:45:39 07:50:27 33° 93° (E) 07:55:13 437.470
Cosmos 2504 24 Aug 07:46:33 07:53:08 28° 77° (ENE) 07:59:24 435.465 / 435.565
Oscar 19 24 Aug 07:50:05 07:50:40 10° 340° (NNW) 07:51:16 437.125/150
JAS-2 24 Aug 07:52:14 07:53:38 11° 356° (N) 07:55:03 435.910
NOAA 18 24 Aug 07:52:31 07:57:29 33° 94° (E) 08:02:23 137.9125
NOAA 15 24 Aug 07:59:47 08:04:55 46° 99° (E) 08:10:02 137.62
DOVE 4 24 Aug 08:01:27 08:05:57 27° 88° (E) 08:10:16 437.250
LilacSat-2 24 Aug 08:04:48 08:08:26 40° 98° (E) 08:12:00 437.200
UNISAT 6 24 Aug 08:07:10 08:07:37 10° 33° (NNE) 08:08:03 437.425
AO-85 24 Aug 08:13:12 08:17:43 31° 128° (SE) 08:21:58 145.980
STRAND 1 24 Aug 08:21:06 08:26:10 62° 256° (WSW) 08:31:16 437.568
PRISM 24 Aug 08:24:19 08:28:04 34° 58° (ENE) 08:31:50 437.425
Gurwin Techsat 1B 24 Aug 08:28:49 08:29:52 11° 341° (NNW) 08:30:54 435.225
AO-7 24 Aug 08:39:55 08:47:34 42° 321° (NW) 08:55:10 29.400- 29.500
ANTELSAT 24 Aug 08:41:44 08:44:14 15° 41° (NE) 08:46:44 437.575/2403.000
RS-15 24 Aug 08:42:08 08:54:21 76° 9° (N) 09:06:50 29.354- 29.394
HORYU 2 24 Aug 08:52:48 08:56:44 32° 305° (NW) 09:00:39 437.375
YUBILEINY 24 Aug 08:53:39 09:02:33 85° 286° (WNW) 09:11:27 435.215
ITAMSAT 1 24 Aug 08:54:41 08:56:42 12° 334° (NNW) 08:58:44 435.822/435.867
HO-68 24 Aug 09:05:43 09:11:59 31° 90° (E) 09:18:11 435.675
CINEMA 3 24 Aug 09:10:45 09:15:00 31° 92° (E) 09:19:02 145.822/145.860
SEEDS 24 Aug 09:11:30 09:14:32 19° 87° (E) 09:17:33 437.485
Cubesat XI-IV 24 Aug 09:12:25 09:17:47 79° 293° (WNW) 09:23:07 437.490
GOMX 1 24 Aug 09:12:39 09:18:11 71° 292° (WNW) 09:23:35 467.674
TIGRISAT 24 Aug 09:12:41 09:16:01 20° 48° (NE) 09:19:19 435.000
BRITE-PL 24 Aug 09:16:55 09:22:13 45° 300° (WNW) 09:27:38 437.365/2234.400
SO-50 24 Aug 09:17:18 09:21:57 59° 220° (SW) 09:26:28 436.795
Cosmos 2491 24 Aug 09:23:50 09:30:21 24° 290° (WNW) 09:36:53 435.465 / 435.565
CANX-2 24 Aug 09:24:41 09:28:30 32° 94° (E) 09:32:20 2200.000
CUTE-I 24 Aug 09:25:37 09:30:56 67° 295° (WNW) 09:36:11 437.470
CUSAT 1 24 Aug 09:26:14 09:30:01 21° 48° (NE) 09:34:31 437.405
CUTE 1.7 + AOD 2 24 Aug 09:31:34 09:35:25 33° 95° (E) 09:39:16 437.475
NOAA 18 24 Aug 09:33:06 09:38:36 69° 296° (WNW) 09:44:03 137.9125
JAS-2 24 Aug 09:33:43 09:36:26 14° 22° (NNE) 09:39:17 435.910
POPSAT HIP 1 24 Aug 09:36:58 09:37:51 11° 35° (NE) 09:38:45 437.405
Cosmos 2504 24 Aug 09:37:14 09:45:35 80° 100° (E) 09:53:21 435.465 / 435.565
DOVE 4 24 Aug 09:38:53 09:44:12 78° 290° (WNW) 09:49:17 437.250
UNISAT 6 24 Aug 09:39:11 09:43:07 29° 55° (NE) 09:47:00 437.425
LilacSat-2 24 Aug 09:39:15 09:42:44 34° 299° (WNW) 09:46:11 437.200
NOAA 15 24 Aug 09:39:42 09:44:49 49° 301° (WNW) 09:49:55 137.62
DANDE 24 Aug 09:48:25 09:49:33 11° 43° (NE) 09:50:46 436.750
AO-85 24 Aug 09:52:45 09:57:52 86° 150° (SSE) 10:02:35 145.980
AAUSAT CUBESAT 2 24 Aug 09:53:33 09:57:02 25° 91° (E) 10:00:31 437.432
CUBEBUG 2 24 Aug 09:54:46 09:58:27 25° 90° (E) 10:02:00 437.445
COMPASS 1 24 Aug 09:57:37 10:01:23 31° 94° (E) 10:05:08 437.405
AIST 1 24 Aug 09:59:11 10:02:09 18° 82° (E) 10:05:10
PRISM 24 Aug 09:59:20 10:03:19 48° 259° (W) 10:07:21 437.425
UWE-3 24 Aug 10:00:42 10:04:01 21° 88° (E) 10:07:15 435.000/436.395/437.385
Oscar 11 24 Aug 10:02:42 10:05:30 17° 85° (E) 10:08:18 145.826/435.025
STRAND 1 24 Aug 10:03:27 10:06:26 15° 278° (W) 10:09:25 437.568
QB50P2 24 Aug 10:04:24 10:06:51 15° 43° (NE) 10:09:17 145.880/145.840
FUNcube-1 24 Aug 10:05:02 10:07:40 16° 84° (E) 10:10:16 145.935
POLYITAN 1 24 Aug 10:06:55 10:09:22 15° 43° (NE) 10:11:50 437.675
DUCHIFAT 1 24 Aug 10:07:33 10:09:48 14° 42° (NE) 10:12:03 145.980
ANTELSAT 24 Aug 10:15:42 10:20:06 48° 63° (ENE) 10:24:26 437.575/2403.000
NANOSAT C BR1 24 Aug 10:18:49 10:21:33 17° 45° (NE) 10:24:16 145.865
ZACube-1 24 Aug 10:23:54 10:27:18 23° 89° (E) 10:30:38 437.345
DELFI C3 24 Aug 10:30:22 10:32:27 14° 84° (E) 10:34:32 145.870
HORYU 2 24 Aug 10:30:56 10:32:09 11° 327° (NNW) 10:33:23 437.375
AO-7 24 Aug 10:32:05 10:38:35 26° 347° (NNW) 10:45:03 29.400- 29.500
SEEDS 24 Aug 10:46:36 10:50:50 86° 286° (WNW) 10:55:02 437.485
TIGRISAT 24 Aug 10:47:33 10:52:09 75° 69° (ENE) 10:56:40 435.000
CINEMA 3 24 Aug 10:47:45 10:52:30 60° 294° (WNW) 10:56:59 145.822/145.860
GOMX 1 24 Aug 10:51:14 10:55:31 24° 314° (NW) 10:59:47 467.674
YUBILEINY 24 Aug 10:52:45 11:00:43 36° 313° (NW) 11:08:43 435.215
Cubesat XI-IV 24 Aug 10:52:59 10:57:16 25° 315° (NW) 11:01:34 437.490
HO-68 24 Aug 10:53:23 11:00:38 90° 98° (E) 11:07:50 435.675
RS-15 24 Aug 10:55:11 11:07:28 79° 219° (SW) 11:19:48 29.354- 29.394
BRITE-PL 24 Aug 10:56:04 10:59:36 17° 322° (NW) 11:03:11 437.365/2234.400
SO-50 24 Aug 10:58:31 11:01:38 18° 242° (WSW) 11:04:43 436.795
QB50P1 24 Aug 10:59:16 11:02:57 29° 55° (NE) 11:06:39 145.935-145.965
CANX-2 24 Aug 11:00:29 11:04:35 50° 295° (WNW) 11:08:41 2200.000
Oscar 19 24 Aug 11:02:50 11:05:09 13° 29° (NNE) 11:07:28 437.125/150
CUTE-I 24 Aug 11:06:13 11:10:14 22° 318° (NW) 11:14:16 437.470
CUTE 1.7 + AOD 2 24 Aug 11:07:22 11:11:28 49° 295° (WNW) 11:15:33 437.475
CUSAT 1 24 Aug 11:07:45 11:12:50 63° 67° (ENE) 11:19:28 437.405
POPSAT HIP 1 24 Aug 11:08:43 11:12:33 32° 57° (ENE) 11:16:23 437.405
NOAA 18 24 Aug 11:14:14 11:18:33 24° 318° (NW) 11:22:50 137.9125
UNISAT 6 24 Aug 11:15:00 11:19:36 69° 256° (WSW) 11:24:07 437.425
JAS-2 24 Aug 11:15:17 11:19:54 31° 47° (NE) 11:24:53 435.910
BUGSAT 1 24 Aug 11:17:03 11:20:20 22° 51° (NE) 11:23:38 437.445
DOVE 4 24 Aug 11:17:03 11:21:15 24° 313° (NW) 11:25:19 437.250
GONETS M04 24 Aug 11:17:18 11:22:14 17° 60° (ENE) 11:27:10
NOAA 15 24 Aug 11:20:08 11:23:36 18° 324° (NW) 11:27:05 137.62
AAUSAT CUBESAT 2 24 Aug 11:28:47 11:32:53 63° 293° (WNW) 11:37:00 437.432
DANDE 24 Aug 11:29:23 11:33:15 39° 64° (ENE) 11:38:19 436.750
CUBEBUG 2 24 Aug 11:31:08 11:35:31 66° 292° (WNW) 11:39:44 437.445
Cosmos 2504 24 Aug 11:32:07 11:39:45 40° 305° (NW) 11:46:56 435.465 / 435.565
COMPASS 1 24 Aug 11:33:07 11:37:09 50° 295° (WNW) 11:41:12 437.405
AO-85 24 Aug 11:33:46 11:38:39 55° 351° (N) 11:43:09 145.980
AIST 1 24 Aug 11:34:48 11:39:11 89° 112° (ESE) 11:43:38
UWE-3 24 Aug 11:36:42 11:41:03 78° 289° (WNW) 11:45:15 435.000/436.395/437.385
QB50P2 24 Aug 11:37:41 11:41:52 52° 64° (ENE) 11:46:03 145.880/145.840
Oscar 11 24 Aug 11:38:01 11:42:21 80° 105° (ESE) 11:46:41 145.826/435.025
POLYITAN 1 24 Aug 11:40:14 11:44:25 53° 64° (ENE) 11:48:36 437.675
FUNcube-1 24 Aug 11:40:24 11:44:40 80° 106° (ESE) 11:48:51 145.935
DUCHIFAT 1 24 Aug 11:40:33 11:44:40 48° 63° (ENE) 11:48:48 145.980
Gurwin Techsat 1B 24 Aug 11:42:56 11:45:35 14° 30° (NNE) 11:48:16 435.225
HUMSAT D 24 Aug 11:43:02 11:46:39 29° 94° (E) 11:50:15 437.325/437.525
NANOSAT C BR1 24 Aug 11:52:22 11:56:35 62° 67° (ENE) 12:00:50 145.865
ANTELSAT 24 Aug 11:52:40 11:56:58 38° 263° (W) 12:01:12 437.575/2403.000
ZACube-1 24 Aug 11:59:50 12:04:05 71° 291° (WNW) 12:08:14 437.345
DELFI C3 24 Aug 12:04:03 12:08:03 71° 105° (ESE) 12:12:03 145.870
ITAMSAT 1 24 Aug 12:10:04 12:11:33 11° 23° (NNE) 12:13:00 435.822/435.867
BEESAT 2 24 Aug 12:11:02 12:12:48 13° 116° (ESE) 12:14:35 435.950
SEEDS 24 Aug 12:22:56 12:26:03 21° 309° (NW) 12:29:11 437.485
TIGRISAT 24 Aug 12:25:34 12:29:20 24° 270° (W) 12:33:02 435.000
CINEMA 3 24 Aug 12:25:35 12:28:49 18° 316° (NW) 12:31:58 145.822/145.860
AUBIESAT-1 24 Aug 12:27:16 12:30:18 18° 93° (E) 12:33:11 437.475
GOMX 1 24 Aug 12:30:40 12:31:55 11° 337° (NNW) 12:33:12 467.674
